Regional Weather Roundup
Issued by NWS Newport/Morehead, NC

Home | Current Version | Previous Version | Text Only | Print | Product List | Glossary On
Versions: 1 2 3 4 5 6 7 8 9 10 11 12 13 14 15 16 17 18 19 20 21 22 23 24 25 26 27 28 29 30 31 32 33 34 35 36 37 38 39 40 41 42 43 44 45 46 47 48 49 50
000
ASUS42 KMHX 020125
RWRMHX
WEATHER ROUNDUP FOR EASTERN NORTH CAROLINA
NATIONAL WEATHER SERVICE NEWPORT/MOREHEAD CITY NC
900 PM EDT SUN MAY 01 2016

NOTE: "FAIR" INDICATES FEW OR NO CLOUDS BELOW 12,000 FEET
WITH NO SIGNIFICANT WEATHER AND/OR OBSTRUCTIONS TO VISIBILITY

NCZ015>017-031-032-045>047-102-103-020200-
NORTH COAST

CITY           SKY/WX    TMP DP  RH WIND       PRES   REMARKS
EDENTON        CLOUDY    70  68  95 SW6       30.03R
ELIZABETH CITY CLOUDY    68  64  87 S6        30.02R
KITTY HAWK     CLOUDY    69  64  85 SW6       30.03R
MANTEO         NOT AVBL

$$

NCZ045>047-081-094-103-104-020200-
CENTRAL COAST

CITY           SKY/WX    TMP DP  RH WIND       PRES   REMARKS
FRISCO         PTCLDY    69  65  86 SW12      30.04R
SWANQUARTER    NOT AVBL

$$

NCZ095-097-098-100-101-020200-
SOUTHERN COAST

CITY           SKY/WX    TMP DP  RH WIND       PRES   REMARKS
BEAUFORT       PTCLDY    70  67  90 S13       30.05R
CEDAR ISLAND   NOT AVBL
JACKSONVILLE   CLOUDY    69  66  90 S8        30.02F
PINEY ISLAND   NOT AVBL
WILMINGTON     PTCLDY    71  68  90 S9        30.03F


$$

NCZ011>013-027>030-043-044-078>080-089-090>093-098-020200-
COASTAL PLAIN

CITY           SKY/WX    TMP DP  RH WIND       PRES   REMARKS
AHOSKIE        CLOUDY    65  64  96 CALM      30.03R
CLINTON        CLOUDY    69  68  98 S3        30.03S
ELIZABETHTOWN  MOCLDY    70  69  97 CALM      30.03R
GOLDSBORO      CLOUDY    70  70 100 VRB3      30.00S
GREENVILLE     CLOUDY    70  68  94 SW6       30.03F
HAVELOCK       MOCLDY    70  65  84 S7        30.05R
KENANSVILLE    CLOUDY    67  66  96 CALM      30.03F
KINSTON        CLOUDY    70  66  88 SW6       30.03R
NEW BERN       CLOUDY    69  65  86 SW6       30.04R
RICHLANDS      MOCLDY    68  66  93 S3        30.03S
ROCKY MOUNT    CLOUDY    69  65  86 S5        30.01R
WASHINGTON     MOCLDY    68  65  90 S5        30.03R
WHITEVILLE     CLOUDY    69  67  93 S5        30.03R

$$

AMZ130-135-150-152-154-156-158-170-250-252-270-ANZ085-086-088-633-658-670-020200-
MARINE OBSERVATIONS

STATION/POSITION TIME  TEMP    WIND        PRES    WAVE   SWELL
                       AIR SEA DIR/SP/G            HT/PER HT/PER
                 (UTC) (F)     (DEG/KT/KT) (MB)    (FT/S) (FT/S)
CHESAPEAKE LIGHT 0100   61     190/ 13/ 14 1017.2
64 E VA BEACH    0050   59 53  190/ 12/ 12 1016.3    4/ 9   3/ 9
DUCK             0100   69 67              1016.2
2 E DUCK         0011      59                N/A     3/ 9   2/11
OREGON INLET     0100   69 66              1016.6
13E OREGON INLT  0100      59                N/A     4/ 9   3/ 9
HATTERAS CG      0100   70 67              1017.0
DIAMOND BUOY     0050   74 74  180/ 17/ 21 1017.2    4/ 9   3/ 9
CAPE LOOKOUT     0100   70     200/ 10/ 12 1017.5
BEAUFORT LAB     0100   70 67              1016.6
30 SE NEW RVR IN 0025      69                N/A     4/10   2/11
27 SE WRIGHTSVLE 0108   73 71  200/ 10/ 14 1017.5
5 SE WRIGHTSVLE  0008   71 68  180/  8/ 12 1018.1
225 S CAPE HAT   0050   72 74  140/ 10/ 10 1020.8    4/11   3/11
41 SE CHARLESTON 0050   74 73  150/  6/  8 1017.8    4/11   3/11

$$




USA.gov is the U.S. government's official web portal to all federal, state and local government web resources and services.